www.pogodaiklimat.ru

Погода и климат >> Архив погоды >> Австрия >> Марияхильфберг


ПОГОДА в Марияхильфберге

  • Прогноз погоды в Марияхильфберге
  • Монитор погоды в Марияхильфберге

АРХИВ ПОГОДЫ в Марияхильфберге

Время (UTC), дата Ветер
(напр.,м/с)
 
Видим.   Явления Облачность Т
(С)
Тd
(С)
f
(%)
Тe
(С)
Тes
(С)
Комфортность P
(гПа)
Po
(гПа)
Тmin
(С)
Tmax
(С)
R
(мм)
R24
(мм)
S
(см)
01 14.07 ЮЗ 2 н/о н/о +12.8 +11.8 94 +12 +12 1013.7 932.3
02 14.07 Ю 2 н/о н/о +13.2 +11.6 90 +12 +12 1013.4 932.1
03 14.07 Ю 1 н/о н/о +12.9 +10.9 88 +13 +13 1013.6 932.2
04 14.07 Ю 1 н/о н/о +13.2 +10.5 84 +13 +13 1013.5 932.2
05 14.07 Ю 1 н/о н/о +13.6 +10.8 83 +14 +14 1013.7 932.5
06 14.07 ЮЗ 1 н/о н/о +13.9 +10.9 82 +14 +14 1013.8 932.7 +12.3 +14.0 1
07 14.07 С 1 н/о н/о +14.5 +11.1 80 +15 +15 1014.2 933.2
08 14.07 З 1 н/о н/о +15.9 +10.4 70 +17 +17 1013.9 933.3
09 14.07 СВ 1 н/о н/о +16.2 +10.3 68 +17 +17 1013.9 933.4
10 14.07 СВ 1 н/о н/о +17.0 +10.1 64 +18 +18 1013.7 933.4
11 14.07 ЮЗ 2 н/о н/о +18.0 +9.9 59 +19 +19 1013.1 933.1
12 14.07 СВ 2 н/о в посл. час осадки н/о +17.8 +10.4 62 +18 +18 1012.6 932.6 0.2
13 14.07 ЮЗ 2 н/о н/о +19.7 +10.1 54 +21 +21 комфорт 1011.9 932.4 0.0
14 14.07 СЗ 1 н/о н/о +19.0 +9.5 54 +21 +21 комфорт 1012.2 932.5
15 14.07 штиль 0 н/о осадки н/о +17.2 +10.1 63 +17 +17 1013.1 932.9 0.1
16 14.07 Ю 1 н/о в посл. час осадки н/о +15.1 +14.1 94 +16 +16 1013.6 932.9 2
17 14.07 штиль 0 н/о н/о +15.9 +14.6 92 +16 +16 1013.4 932.9
18 14.07 С 1 н/о осадки н/о +15.4 +11.8 79 +16 +16 1014.0 933.3 +13.8 +20.4 2
19 14.07 штиль 0 н/о ливневой дождь н/о +13.4 +13.1 98 +13 +13 1014.8 933.5 1
20 14.07 ЮЗ 1 н/о осадки н/о +12.7 +12.4 98 +13 +13 1015.3 933.8 0.1
21 14.07 ЮЗ 2 н/о {ливн. осадки} н/о +11.6 +11.3 98 +10 +10 1015.9 934.0 1
22 14.07 ЮЗ 3 н/о н/о +10.6 +10.3 98 +8 +8 1016.0 933.8
23 14.07 ЮЗ 3 н/о н/о +10.6 +10.3 98 +8 +8 1016.0 933.8
00 15.07 ЮЗ 3 н/о {ливн. осадки} н/о +10.7 +10.4 98 +9 +9 1016.0 933.8 1
01 15.07 ЮЗ 2 н/о н/о +10.4 +10.1 98 +9 +9 1015.8 933.5
02 15.07 ЮЗ 1 н/о н/о +10.4 +10.1 98 +10 +10 1015.4 933.2
03 15.07 ЮЗ 1 н/о н/о +10.8 +10.2 96 +10 +10 1015.3 933.2
04 15.07 штиль 0 н/о н/о +11.0 +10.7 98 +10 +10 1015.3 933.3
05 15.07 ЮЗ 2 н/о н/о +11.1 +10.8 98 +10 +10 1015.5 933.5
06 15.07 ЮЗ 1 н/о н/о +12.3 +12.0 98 +12 +12 1015.7 934.0 +10.0 +15.8 1
07 15.07 ЮЗ 1 н/о н/о +14.7 +11.6 82 +15 +15 1015.1 934.1
08 15.07 ЮЗ 1 н/о н/о +16.9 +12.8 77 +18 +18 1014.6 934.3
09 15.07 ЮЗ 1 н/о н/о +15.4 +10.4 72 +16 +16 1015.0 934.2
10 15.07 СВ 1 н/о н/о +17.0 +8.7 58 +18 +18 1014.5 934.1
11 15.07 СВ 2 н/о н/о +19.0 +7.8 48 +20 +20 1013.6 933.8
12 15.07 СВ 2 н/о н/о +19.5 +7.6 46 +21 +21 комфорт 1013.5 933.8
13 15.07 СВ 3 н/о н/о +19.6 +4.5 37 +20 +20 1013.2 933.5 0.0
14 15.07 СВ 2 н/о н/о +20.5 +6.5 40 +22 +22 комфорт 1012.9 933.5
15 15.07 СВ 1 н/о н/о +20.4 +6.0 39 +22 +22 комфорт 1012.9 933.4 0.0
16 15.07 штиль 0 н/о н/о +19.8 +5.1 38 +20 +20 1012.7 933.1
17 15.07 СВ 2 н/о н/о +18.9 +5.8 42 +20 +20 1012.8 933.0
18 15.07 СВ 1 н/о н/о +17.3 +7.7 53 +18 +18 1013.7 933.4 +11.9 +21.2 0.0
19 15.07 штиль 0 н/о н/о +16.5 +8.0 57 +16 +16 1014.2 933.7
20 15.07 ЮЗ 2 н/о н/о +14.7 +8.9 68 +14 +14 1015.3 934.2
21 15.07 ЮЗ 2 н/о н/о +14.1 +9.1 72 +14 +14 1015.6 934.3
22 15.07 ЮЗ 2 н/о н/о +13.1 +9.9 81 +12 +12 1016.1 934.5 0.0
23 15.07 ЮЗ 2 н/о н/о +12.5 +9.7 83 +12 +12 1016.1 934.4
00 16.07 З 1 н/о н/о +12.0 +10.4 90 +12 +12 1016.3 934.4 0.0
01 16.07 ЮЗ 2 н/о н/о +10.8 +9.7 93 +9 +9 1016.5 934.3
02 16.07 ЮЗ 1 н/о н/о +10.0 +9.4 96 +9 +9 1016.7 934.2
03 16.07 З 1 н/о н/о +9.5 +9.2 98 +9 +9 1016.7 934.1
04 16.07 ЮЗ 2 н/о н/о +9.6 +9.3 98 +8 +8 1016.7 934.1
05 16.07 ЮЗ 2 н/о н/о +11.1 +9.8 92 +10 +10 1016.3 934.2
06 16.07 ЮЗ 2 н/о н/о +14.2 +10.0 76 +14 +14 1015.3 934.1 +9.1 +17.6 0.0
07 16.07 ЮЗ 2 н/о н/о +18.0 +10.1 60 +19 +19 1014.2 934.1
08 16.07 ЮЗ 2 н/о н/о +19.3 +9.2 52 +21 +21 комфорт 1013.7 934.0
09 16.07 ЮЗ 1 н/о н/о +19.7 +9.6 52 +22 +22 комфорт 1013.1 933.5
10 16.07 Ю 1 н/о н/о +20.8 +9.1 47 +23 +23 комфорт 1012.8 933.5
11 16.07 ЮЗ 3 н/о н/о +22.0 +9.2 44 +23 +23 комфорт 1012.3 933.4
12 16.07 Ю 1 н/о н/о +22.8 +8.9 41 +24 +24 комфорт 1012.0 933.3
13 16.07 ЮЗ 1 н/о н/о +23.6 +9.6 41 +25 +25 комфорт 1011.6 933.1
14 16.07 ЮЗ 1 н/о н/о +22.8 +8.2 39 +24 +24 комфорт 1011.6 932.9 0.0
15 16.07 Ю 1 н/о н/о +23.1 +7.3 36 +24 +24 комфорт 1011.3 932.7 0.0
16 16.07 Ю 1 н/о н/о +21.8 +7.3 39 +23 +23 комфорт 1011.5 932.5
17 16.07 ЮЗ 1 н/о н/о +21.0 +7.3 41 +23 +23 комфорт 1011.9 932.7
18 16.07 штиль 0 н/о н/о +19.9 +7.3 44 +21 +21 комфорт 1012.4 932.9 +13.7 +23.6 0.0
19 16.07 Ю 1 н/о н/о +18.6 +7.4 48 +20 +20 1013.2 933.3
20 16.07 Ю 1 н/о н/о +17.7 +7.5 51 +19 +19 1013.9 933.7
21 16.07 ЮЗ 1 н/о н/о +17.5 +7.8 53 +19 +19 1014.3 934.0
22 16.07 ЮЗ 2 н/о н/о +16.5 +8.0 57 +17 +17 1014.7 934.1
23 16.07 ЮЗ 2 н/о н/о +16.6 +8.8 60 +17 +17 1014.6 934.1
00 17.07 штиль 0 н/о н/о +15.8 +8.3 61 +16 +16 1015.0 934.2
01 17.07 С 1 н/о н/о +15.1 +8.4 64 +16 +16 1015.1 934.1
02 17.07 ЮЗ 1 н/о н/о +13.5 +9.0 74 +14 +14 1015.2 933.8
03 17.07 С 1 н/о н/о +12.9 +9.7 81 +13 +13 1015.2 933.7
04 17.07 С 1 н/о н/о +12.5 +10.0 85 +12 +12 1015.5 933.8
05 17.07 СВ 1 н/о н/о +13.1 +11.0 87 +13 +13 1015.2 933.7
06 17.07 СВ 1 н/о н/о +15.6 +10.8 73 +16 +16 1014.4 933.7 +11.8 +20.2
07 17.07 СВ 1 н/о н/о +17.8 +11.4 66 +19 +19 1013.7 933.6
08 17.07 штиль 0 н/о н/о +19.7 +11.7 60 +21 +21 комфорт 1012.7 933.2
09 17.07 ЮЗ 2 н/о н/о +21.1 +9.7 48 +22 +22 комфорт 1012.2 933.1
10 17.07 ЮЗ 2 н/о н/о +22.6 +9.7 44 +24 +24 комфорт 1011.6 932.9
11 17.07 штиль 0 н/о н/о +23.2 +9.2 41 +25 +25 комфорт 1011.0 932.5
12 17.07 ЮЗ 3 н/о н/о +24.3 +9.8 40 +25 +25 комфорт 1010.5 932.3
13 17.07 штиль 0 н/о н/о +25.0 +8.9 36 +26 +26 жарко 1010.0 932.0
14 17.07 ЮЗ 1 н/о н/о +24.5 +8.5 36 +25 +25 комфорт 1010.1 932.0
15 17.07 С 1 н/о н/о +24.4 +8.4 36 +25 +25 комфорт 1010.0 931.8
16 17.07 штиль 0 н/о н/о +23.8 +8.7 38 +24 +24 комфорт 1009.7 931.4
17 17.07 СВ 1 н/о н/о +22.9 +8.2 39 +24 +24 комфорт 1009.8 931.3
18 17.07 С 1 н/о н/о +21.7 +8.3 42 +23 +23 комфорт 1010.2 931.3 +15.3 +25.6
19 17.07 СВ 1 н/о н/о +20.1 +8.1 46 +22 +22 комфорт 1010.7 931.4
20 17.07 С 1 н/о н/о +18.9 +10.2 57 +21 +21 комфорт 1011.9 932.2
21 17.07 ЮЗ 1 н/о н/о +17.0 +11.0 68 +18 +18 1012.0 931.8
23 17.07 С 1 н/о н/о +15.9 +11.9 77 +17 +17 1012.4 931.9
00 18.07 ЮЗ 1 н/о н/о +14.3 +11.8 85 +15 +15 1012.5 931.6
01 18.07 СЗ 1 н/о н/о +15.5 +12.2 81 +16 +16 1011.9 931.4
02 18.07 С 1 н/о н/о +14.3 +12.3 88 +15 +15 1012.7 931.8
03 18.07 С 1 н/о н/о +13.5 +12.2 92 +14 +14 1013.1 932.0
04 18.07 ЮЗ 1 н/о н/о +12.5 +12.2 98 +12 +12 1013.6 932.1
05 18.07 ЮЗ 1 н/о н/о +13.4 +12.7 96 +13 +13 1013.4 932.2
06 18.07 СВ 1 н/о н/о +16.4 +12.7 79 +17 +17 1012.5 932.2 +12.3 +21.8
07 18.07 СВ 1 н/о н/о +18.8 +11.8 64 +21 +21 комфорт 1011.9 932.2
08 18.07 ЮЗ 2 н/о н/о +20.4 +12.1 59 +23 +23 комфорт 1011.5 932.3
09 18.07 ЮЗ 2 н/о н/о +20.6 +12.3 59 +23 +23 комфорт 1011.7 932.5 0.0
10 18.07 СВ 1 н/о н/о +21.9 +11.9 53 +24 +24 комфорт 1011.2 932.4
11 18.07 СВ 2 н/о н/о +23.0 +9.8 43 +25 +25 комфорт 1010.7 932.2
12 18.07 ЮЗ 3 н/о н/о +24.2 +7.8 35 +25 +25 комфорт 1010.4 932.1 0.0
13 18.07 СВ 2 н/о н/о +23.7 +8.9 39 +24 +24 комфорт 1010.4 932.0
14 18.07 СВ 2 н/о н/о +23.7 +11.4 46 +25 +25 комфорт 1010.5 932.2
15 18.07 ЮВ 1 н/о н/о +22.3 +10.8 48 +24 +24 комфорт 1011.2 932.5
16 18.07 ЮЗ 2 н/о н/о +21.7 +10.8 50 +24 +24 комфорт 1011.3 932.4
17 18.07 ЮЗ 1 н/о н/о +21.5 +11.5 53 +24 +24 комфорт 1011.5 932.6
18 18.07 З 1 н/о н/о +20.5 +10.9 54 +23 +23 комфорт 1012.2 932.9 +16.2 +25.6 0.0
19 18.07 ЮЗ 1 н/о н/о +19.1 +10.6 58 +21 +21 комфорт 1013.0 933.3
20 18.07 ЮЗ 1 н/о н/о +17.1 +11.4 69 +18 +18 1014.1 933.8
21 18.07 ЮЗ 2 н/о н/о +16.2 +12.5 79 +16 +16 1014.6 934.1
22 18.07 ЮЗ 2 н/о н/о +15.9 +12.4 80 +16 +16 1014.7 934.1
23 18.07 ЮЗ 2 н/о н/о +14.3 +12.5 89 +14 +14 1015.5 934.4
00 19.07 ЮЗ 2 н/о н/о +13.5 +12.4 93 +13 +13 1015.9 934.5
01 19.07 ЮЗ 2 н/о н/о +13.4 +12.1 92 +13 +13 1016.0 934.6
02 19.07 ЮЗ 2 н/о н/о +13.2 +12.2 94 +12 +12 1016.0 934.5
03 19.07 З 1 н/о н/о +12.8 +11.5 92 +13 +13 1016.2 934.6
04 19.07 З 2 н/о н/о +12.5 +11.5 94 +11 +11 1016.4 934.7
05 19.07 ЮЗ 2 н/о н/о +13.1 +12.0 93 +12 +12 1016.4 934.9
06 19.07 ЮЗ 2 н/о н/о +15.8 +12.0 78 +16 +16 1016.0 935.2 +12.4 +20.7
07 19.07 ЮЗ 1 н/о н/о +20.2 +12.2 60 +23 +23 комфорт 1014.8 935.3
08 19.07 ЮЗ 2 н/о н/о +23.5 +10.5 44 +25 +25 комфорт 1014.1 935.4
09 19.07 штиль 0 н/о н/о +24.1 +9.7 40 +25 +25 комфорт 1014.0 935.5
10 19.07 штиль 0 н/о н/о +24.2 +9.4 39 +25 +25 комфорт 1014.1 935.6
11 19.07 Ю 2 н/о н/о +26.1 +10.7 38 +27 +27 жарко 1013.5 935.5
12 19.07 ЮЗ 3 н/о н/о +26.3 +10.0 36 +27 +27 жарко 1013.2 935.3
13 19.07 Ю 1 н/о н/о +25.9 +11.6 41 +27 +27 жарко 1013.2 935.2
14 19.07 ЮЗ 1 н/о в посл. час осадки н/о +18.6 +16.1 85 +21 +21 комфорт 1015.8 935.9 0.5
15 19.07 ЮЗ 1 н/о {осадки} н/о +22.6 +15.5 64 +27 +27 душно 1014.6 935.8 0.5
16 19.07 ЮЗ 2 н/о н/о +21.9 +15.1 65 +25 +25 комфорт 1014.8 935.8
17 19.07 ЮЗ 2 н/о н/о +21.8 +13.9 61 +25 +25 комфорт 1014.6 935.6
18 19.07 З 1 н/о {осадки} н/о +21.6 +13.0 58 +24 +24 комфорт 1014.8 935.7 +15.7 +27.0 0.5
19 19.07 штиль 0 н/о н/о +20.1 +12.6 62 +22 +22 комфорт 1015.5 935.9
20 19.07 ЮЗ 1 н/о н/о +17.8 +13.9 78 +19 +19 1016.6 936.4
21 19.07 ЮЗ 1 н/о н/о +16.4 +14.0 86 +17 +17 1017.0 936.4
22 19.07 ЮЗ 2 н/о н/о +16.0 +13.4 85 +16 +16 1017.4 936.6
23 19.07 З 1 н/о н/о +15.9 +13.7 87 +17 +17 1017.2 936.4
00 20.07 ЮЗ 1 н/о н/о +15.9 +13.3 85 +17 +17 1017.1 936.3
01 20.07 ЮЗ 1 н/о н/о +15.5 +13.0 85 +16 +16 1016.8 935.9
02 20.07 ЮЗ 1 н/о н/о +15.1 +12.9 87 +16 +16 1016.8 935.8
03 20.07 штиль 0 н/о н/о +15.6 +12.9 84 +15 +15 1016.4 935.6
04 20.07 ЮЗ 1 н/о н/о +14.5 +13.0 91 +15 +15 1017.1 935.9
05 20.07 ЮЗ 2 н/о н/о +15.3 +13.8 91 +15 +15 1016.8 935.9
06 20.07 ЮЗ 2 н/о н/о +17.2 +14.6 85 +18 +18 1016.3 936.0 +14.4 +21.7
07 20.07 штиль 0 н/о н/о +22.4 +13.7 58 +26 +26 жарко 1014.9 936.0
08 20.07 В 1 н/о н/о +25.0 +15.1 54 +28 +28 жарко 1014.4 936.2
09 20.07 СВ 1 н/о н/о +26.8 +14.2 46 +29 +29 жарко 1013.9 936.2
10 20.07 СВ 1 н/о н/о +27.7 +15.1 46 +30 +30 жарко 1013.3 935.9
11 20.07 СВ 1 н/о н/о +26.0 +13.8 47 +28 +28 жарко 1013.8 935.9
12 20.07 СВ 2 н/о н/о +28.6 +15.6 45 +31 +31 жарко 1012.9 935.7
13 20.07 СВ 1 н/о н/о +27.0 +15.1 48 +30 +30 душно 1013.2 935.6
14 20.07 С 1 н/о в посл. час осадки н/о +26.4 +16.4 54 +30 +30 душно 1013.3 935.6 0.1
15 20.07 СВ 1 н/о {осадки} н/о +26.5 +15.9 52 +30 +30 душно 1013.3 935.6 0.1
16 20.07 штиль 0 н/о н/о +26.4 +15.8 52 +30 +30 душно 1013.3 935.6
17 20.07 ЮЗ 1 н/о н/о +25.2 +15.0 53 +28 +28 жарко 1013.7 935.6
18 20.07 ЮЗ 2 н/о {осадки} н/о +24.7 +13.5 50 +27 +27 жарко 1014.0 935.7 +16.0 +29.1 0.1
19 20.07 ЮЗ 2 н/о н/о +23.5 +13.1 52 +26 +26 жарко 1014.3 935.7
20 20.07 ЮЗ 2 н/о н/о +20.6 +12.5 60 +23 +23 комфорт 1015.9 936.4
21 20.07 ЮЗ 2 н/о н/о +19.2 +13.1 68 +21 +21 комфорт 1016.4 936.5
22 20.07 ЮЗ 2 н/о н/о +18.3 +13.6 74 +19 +19 1017.0 936.9
23 20.07 ЮЗ 2 н/о н/о +18.7 +13.9 74 +20 +20 1017.1 937.1
00 21.07 ЮЗ 3 н/о н/о +18.4 +14.5 78 +19 +19 1017.4 937.3

 

Местоположение метеостанции Марияхильфберг (Австрия): широта 47.87 долгота 15.88 высота над уровнем моря 710 м.

В архиве по умолчанию представлена погода в Марияхильфберге за последнюю неделю. Архивные данные за месяц целиком и за предыдущие месяцы, начиная с января 2011 года, Вы можете получить, выбрав интересующий диапазон дат из раскрывающегося списка и нажав кнопку "Ввод!".


*Определитесь, кто Вы:
робот инопланетянин человек

Внимание! Время в таблицах - всемирное. Для получения местного времени необходимо прибавить поправку, которая равна 1 ч.

Смотрите также архив погоды в соседних городах и на ближайших метеорологических станциях:

Погода в Пухберг-ам-Шнеберге (Австрия) (10 км)
Погода в Хоэ-Ванде (Австрия) (13 км)
Погода в Раксе (Австрия) (18 км)
Погода в Райхенау-ан-дер-Раксе (Австрия) (19 км)
Погода в Винер-Нойштадт (Австрия) (26 км)
Погода в Семмеринге (Австрия) (27 км)
Погода в Хиршенкогеле (Австрия) (28 км)
Погода в Лилиенфельде (Австрия) (29 км)
Погода в Гумпольдскирхене (Австрия) (35 км)
Погода в Мёнихкирхене (Австрия) (41 км)

Пояснения к столбцам:

Ветер - указаны скорость ветра в м/с - средняя за 10 мин, порывы в срок и между сроками (в фигурных скобках) и направление, откуда дует ветер: С - северный, СВ - северо-восточный, В - восточный, ЮВ - юго-восточный, Ю - южный, ЮЗ - юго-западный, З - западный, СЗ - северо-западный.
Видимость - горизонтальная дальность видимости в метрах или километрах. При видимости от 1 до 10 км при отсутствии осадков обычно наблюдается дымка, при ухудшении видимости до 1 км и менее - туман. В сухую погоду видимость может ухудшаться дымом, пылью или мглою.
Явления - указаны атмосферные явления, наблюдавшиеся в срок или в последний час перед сроком; фигурными скобками обозначены явления, наблюдавшиеся между сроками (за 1-3 часа до срока); квадратными скобками обозначены град или гололедные отложения с указанием их диаметра в мм.
Облачность - указаны через наклонную черту общая и нижняя облачность в баллах и высота нижней границы облаков в метрах; квадратными скобками обозначены формы облаков: Ci - перистые, Cs - перисто-слоистые, Cc - перисто-кучевые, Ac - высококучевые, As - высокослоистые, Sc - слоисто-кучевые, Ns - слоисто-дождевые, Cu - кучевые, Cb - кучево-дождевые. Подробнее классификацию облаков см. в Атласе облаков (PDF).
T - Температура воздуха - температура, измеренная на высоте 2 м над землей.
Td - Температура точки росы - температура, при понижении до которой содержащийся в воздухе водяной пар достигнет насыщения.
f - Относительная влажность воздуха - влажноcть воздуха, измеренная на высоте 2 м над землей.
Te - Эффективная температура - температура, которую ощущает одетый по сезону человек в тени. Характеристика душности погоды. При расчете учитывается влияние влажности воздуха и скорости ветра на теплоощущения человека.
Tes - Эффективная температура на солнце - температура, которую ощущает человек, с поправкой на солнечный нагрев. Характеристика знойности погоды. Зависит от высоты солнца над горизонтом, облачности и скорости ветра. Ночью, в пасмурную погоду, а также при ветре 12 м/с и более поправка равна нулю.
P - Атмосферное давление - приведенное к уровню моря атмосферное давление.
Po - Атмосферное давление - измеренное на уровне метеостанции атмосферное давление.
Tmin - Минимальная температура - минимум температуры воздуха на высоте 2 м над землей.
Tmax - Максимальная температура - максимум температуры воздуха на высоте 2 м над землей.
R - Количество осадков - Количество выпавших осадков за период времени, мм. При наведении курсора мыши на число - период времени, за который выпало указанное количество осадков.
R24 - Количество осадков - Количество выпавших осадков за 24 часа, мм.
S - Снежный покров - Высота снежного покрова, см. При наведении курсора мыши на число - состояние снежного покрова и степень покрытия местности в баллах.